Time,TemperatureF,DewpointF,PressureIn,WindDirection,WindDirectionDegrees,WindSpeedMPH,WindSpeedGustMPH,Humidity,HourlyPrecipIn,Conditions,Clouds,dailyrainin,SolarRadiationWatts/m^2,SoftwareType,DateUTC
2013-05-12 00:01:00,63.0,38.0,-100.00,NW,326,11.0,17.0,39,-99.99,,,0.00,0.000000,,2013-05-12 07:01:00,
2013-05-12 00:11:00,63.0,38.0,-100.00,NW,326,11.0,17.0,39,-99.99,,,0.00,0.000000,,2013-05-12 07:11:00,
2013-05-12 00:21:00,63.0,38.0,-100.00,NW,326,11.0,17.0,39,-99.99,,,0.00,0.000000,,2013-05-12 07:21:00,
2013-05-12 00:52:00,62.0,37.0,-100.00,NW,325,13.0,16.0,40,0.00,,,-99.99,0.000000,,2013-05-12 07:52:00,
2013-05-12 01:02:00,62.0,37.0,-100.00,NW,325,13.0,16.0,40,0.00,,,-99.99,0.000000,,2013-05-12 08:02:00,
2013-05-12 01:11:00,62.0,37.0,-100.00,NW,325,13.0,16.0,40,0.00,,,-99.99,0.000000,,2013-05-12 08:11:00,
2013-05-12 01:21:00,62.0,37.0,-100.00,NW,325,13.0,16.0,40,0.00,,,-99.99,0.000000,,2013-05-12 08:21:00,
2013-05-12 01:53:00,63.0,39.0,-100.00,NW,320,14.0,14.0,41,0.00,,,0.00,0.000000,,2013-05-12 08:53:00,
2013-05-12 02:01:00,63.0,39.0,-100.00,NW,320,14.0,14.0,41,0.00,,,0.00,0.000000,,2013-05-12 09:01:00,
2013-05-12 02:11:00,63.0,39.0,-100.00,NW,320,14.0,14.0,41,0.00,,,0.00,0.000000,,2013-05-12 09:11:00,
2013-05-12 02:21:00,63.0,39.0,-100.00,NW,320,14.0,14.0,41,0.00,,,0.00,0.000000,,2013-05-12 09:21:00,
2013-05-12 02:53:00,60.0,36.0,-100.00,NNW,329,16.0,18.0,41,0.00,,,0.00,0.000000,,2013-05-12 09:53:00,
2013-05-12 03:03:00,60.0,36.0,-100.00,NNW,329,16.0,18.0,41,0.00,,,0.00,0.000000,,2013-05-12 10:03:00,
2013-05-12 03:12:00,60.0,36.0,-100.00,NNW,329,16.0,18.0,41,0.00,,,0.00,0.000000,,2013-05-12 10:12:00,
2013-05-12 03:22:00,60.0,36.0,-100.00,NNW,329,16.0,18.0,41,0.00,,,0.00,0.000000,,2013-05-12 10:22:00,
2013-05-12 03:52:00,60.0,38.0,-100.00,NW,321,16.0,20.0,44,0.00,,,0.00,0.000000,,2013-05-12 10:52:00,
2013-05-12 04:02:00,60.0,38.0,-100.00,NW,321,16.0,20.0,44,0.00,,,0.00,0.000000,,2013-05-12 11:02:00,
2013-05-12 04:12:00,60.0,38.0,-100.00,NW,321,16.0,20.0,44,0.00,,,0.00,0.000000,,2013-05-12 11:12:00,
2013-05-12 04:21:00,60.0,38.0,-100.00,NW,321,16.0,20.0,44,0.00,,,0.00,0.000000,,2013-05-12 11:21:00,
2013-05-12 04:52:00,60.0,39.0,-100.00,NW,326,15.0,20.0,45,0.00,,,0.00,0.000000,,2013-05-12 11:52:00,
2013-05-12 05:01:00,60.0,39.0,-100.00,NW,326,15.0,20.0,45,0.00,,,0.00,0.000000,,2013-05-12 12:01:00,
2013-05-12 05:11:00,60.0,39.0,-100.00,NW,326,15.0,20.0,45,0.00,,,0.00,0.000000,,2013-05-12 12:11:00,
2013-05-12 05:21:00,60.0,39.0,-100.00,NW,326,15.0,20.0,45,0.00,,,0.00,0.000000,,2013-05-12 12:21:00,
2013-05-12 05:52:00,60.0,40.0,-100.00,NW,321,17.0,20.0,48,0.00,,,0.00,0.000000,,2013-05-12 12:52:00,
2013-05-12 06:01:00,60.0,40.0,-100.00,NW,321,17.0,20.0,48,0.00,,,0.00,0.000000,,2013-05-12 13:01:00,
2013-05-12 06:21:00,60.0,40.0,-100.00,NW,321,17.0,20.0,48,0.00,,,0.00,0.000000,,2013-05-12 13:21:00,
2013-05-12 06:52:00,59.0,39.0,-100.00,NNW,328,19.0,19.0,47,0.00,,,0.00,0.000000,,2013-05-12 13:52:00,
2013-05-12 07:01:00,59.0,39.0,-100.00,NNW,328,19.0,19.0,47,0.00,,,0.00,0.000000,,2013-05-12 14:01:00,
2013-05-12 07:11:00,59.0,39.0,-100.00,NNW,328,19.0,19.0,47,0.00,,,0.00,0.000000,,2013-05-12 14:11:00,
2013-05-12 07:21:00,59.0,39.0,-100.00,NNW,328,19.0,19.0,47,0.00,,,0.00,0.000000,,2013-05-12 14:21:00,
2013-05-12 07:52:00,58.0,38.0,-100.00,NNW,331,17.0,23.0,48,0.00,,,0.00,23.000000,,2013-05-12 14:52:00,
2013-05-12 08:01:00,58.0,38.0,-100.00,NNW,331,17.0,23.0,48,0.00,,,0.00,23.000000,,2013-05-12 15:01:00,
2013-05-12 08:11:00,58.0,38.0,-100.00,NNW,331,17.0,23.0,48,0.00,,,0.00,23.000000,,2013-05-12 15:11:00,
2013-05-12 08:21:00,58.0,38.0,-100.00,NNW,331,17.0,23.0,48,0.00,,,0.00,23.000000,,2013-05-12 15:21:00,
2013-05-12 08:53:00,61.0,41.0,-100.00,NNW,329,17.0,22.0,47,0.00,,,0.00,229.000000,,2013-05-12 15:53:00,
2013-05-12 09:02:00,61.0,41.0,-100.00,NNW,329,17.0,22.0,47,0.00,,,0.00,229.000000,,2013-05-12 16:02:00,
2013-05-12 09:12:00,61.0,41.0,-100.00,NNW,329,17.0,22.0,47,0.00,,,0.00,229.000000,,2013-05-12 16:12:00,
2013-05-12 09:23:00,61.0,41.0,-100.00,NNW,329,17.0,22.0,47,0.00,,,0.00,229.000000,,2013-05-12 16:23:00,
2013-05-12 09:52:00,61.0,35.0,-100.00,NNW,329,14.0,19.0,37,0.00,,,0.00,495.000000,,2013-05-12 16:52:00,
2013-05-12 10:02:00,61.0,35.0,-100.00,NNW,329,14.0,19.0,37,0.00,,,0.00,495.000000,,2013-05-12 17:02:00,
2013-05-12 10:11:00,61.0,35.0,-100.00,NNW,329,14.0,19.0,37,0.00,,,0.00,495.000000,,2013-05-12 17:11:00,
2013-05-12 10:22:00,61.0,35.0,-100.00,NNW,329,14.0,19.0,37,0.00,,,0.00,495.000000,,2013-05-12 17:22:00,
2013-05-12 10:52:00,64.0,34.0,-100.00,NW,316,10.0,20.0,32,0.00,,,0.00,756.000000,,2013-05-12 17:52:00,
2013-05-12 11:01:00,64.0,34.0,-100.00,NW,316,10.0,20.0,32,0.00,,,0.00,756.000000,,2013-05-12 18:01:00,
2013-05-12 11:12:00,64.0,34.0,-100.00,NW,316,10.0,20.0,32,0.00,,,0.00,756.000000,,2013-05-12 18:12:00,
2013-05-12 11:22:00,64.0,34.0,-100.00,NW,316,10.0,20.0,32,0.00,,,0.00,756.000000,,2013-05-12 18:22:00,
2013-05-12 11:52:00,68.0,31.0,-100.00,WNW,289,8.0,17.0,25,0.00,,,0.00,984.000000,,2013-05-12 18:52:00,
2013-05-12 12:01:00,68.0,31.0,-100.00,WNW,289,8.0,17.0,25,0.00,,,0.00,984.000000,,2013-05-12 19:01:00,
2013-05-12 12:11:00,68.0,31.0,-100.00,WNW,289,8.0,17.0,25,0.00,,,0.00,984.000000,,2013-05-12 19:11:00,
2013-05-12 12:21:00,68.0,31.0,-100.00,WNW,289,8.0,17.0,25,0.00,,,0.00,984.000000,,2013-05-12 19:21:00,
2013-05-12 12:52:00,74.0,32.0,-100.00,West,279,7.0,14.0,21,0.00,,,0.00,1162.000000,,2013-05-12 19:52:00,
2013-05-12 13:02:00,74.0,32.0,-100.00,West,279,7.0,14.0,21,0.00,,,0.00,1162.000000,,2013-05-12 20:02:00,
2013-05-12 13:11:00,74.0,32.0,-100.00,West,279,7.0,14.0,21,0.00,,,0.00,1162.000000,,2013-05-12 20:11:00,
2013-05-12 13:21:00,74.0,32.0,-100.00,West,279,7.0,14.0,21,0.00,,,0.00,1162.000000,,2013-05-12 20:21:00,
2013-05-12 13:52:00,75.0,19.0,-100.00,East,84,6.0,14.0,12,0.00,,,0.00,1082.000000,,2013-05-12 20:52:00,
2013-05-12 14:01:00,75.0,19.0,-100.00,East,84,6.0,14.0,12,0.00,,,0.00,1082.000000,,2013-05-12 21:01:00,
2013-05-12 14:11:00,75.0,19.0,-100.00,East,84,6.0,14.0,12,0.00,,,0.00,1082.000000,,2013-05-12 21:11:00,
2013-05-12 14:21:00,75.0,19.0,-100.00,East,84,6.0,14.0,12,0.00,,,0.00,1082.000000,,2013-05-12 21:21:00,
2013-05-12 14:53:00,79.0,18.0,-100.00,SSW,203,5.0,17.0,10,0.00,,,0.00,900.000000,,2013-05-12 21:53:00,
2013-05-12 15:02:00,79.0,18.0,-100.00,SSW,203,5.0,17.0,10,0.00,,,0.00,900.000000,,2013-05-12 22:02:00,
2013-05-12 15:12:00,79.0,18.0,-100.00,SSW,203,5.0,17.0,10,0.00,,,0.00,900.000000,,2013-05-12 22:12:00,
2013-05-12 15:22:00,79.0,18.0,-100.00,SSW,203,5.0,17.0,10,0.00,,,0.00,900.000000,,2013-05-12 22:22:00,
2013-05-12 16:11:00,85.0,25.0,-100.00,SSW,213,7.0,20.0,11,0.00,,,0.00,1236.000000,,2013-05-12 23:11:00,
2013-05-12 16:52:00,79.0,30.0,-100.00,NNW,343,3.0,15.0,17,-99.99,,,0.00,994.000000,,2013-05-12 23:52:00,
2013-05-12 17:01:00,79.0,30.0,-100.00,NNW,343,3.0,15.0,17,-99.99,,,0.00,994.000000,,2013-05-13 00:01:00,
2013-05-12 17:52:00,81.0,42.0,-100.00,West,277,15.0,15.0,25,0.00,,,0.00,631.000000,,2013-05-13 00:52:00,
2013-05-12 18:01:00,81.0,42.0,-100.00,West,277,15.0,15.0,25,0.00,,,0.00,631.000000,,2013-05-13 01:01:00,
2013-05-12 18:11:00,81.0,42.0,-100.00,West,277,15.0,15.0,25,0.00,,,0.00,631.000000,,2013-05-13 01:11:00,
2013-05-12 18:21:00,81.0,42.0,-100.00,West,277,15.0,15.0,25,0.00,,,0.00,631.000000,,2013-05-13 01:21:00,
2013-05-12 18:52:00,78.0,40.0,-100.00,West,279,15.0,25.0,26,-99.99,,,0.00,683.000000,,2013-05-13 01:52:00,
2013-05-12 19:01:00,78.0,40.0,-100.00,West,279,15.0,25.0,26,-99.99,,,0.00,683.000000,,2013-05-13 02:01:00,
2013-05-12 19:52:00,73.0,38.0,-100.00,WNW,282,17.0,23.0,28,-99.99,,,0.00,327.000000,,2013-05-13 02:52:00,
2013-05-12 20:01:00,73.0,38.0,-100.00,WNW,282,17.0,23.0,28,-99.99,,,0.00,327.000000,,2013-05-13 03:01:00,
2013-05-12 20:53:00,69.0,35.0,-100.00,NW,309,13.0,26.0,29,0.00,,,0.00,40.000000,,2013-05-13 03:53:00,
2013-05-12 21:02:00,69.0,35.0,-100.00,NW,309,13.0,26.0,29,0.00,,,0.00,40.000000,,2013-05-13 04:02:00,
2013-05-12 21:12:00,69.0,35.0,-100.00,NW,309,13.0,26.0,29,0.00,,,0.00,40.000000,,2013-05-13 04:12:00,
2013-05-12 21:23:00,69.0,35.0,-100.00,NW,309,13.0,26.0,29,0.00,,,0.00,40.000000,,2013-05-13 04:23:00,
2013-05-12 21:52:00,68.0,37.0,-100.00,NW,317,13.0,27.0,32,0.00,,,0.00,6.000000,,2013-05-13 04:52:00,
2013-05-12 22:02:00,68.0,37.0,-100.00,NW,317,13.0,27.0,32,0.00,,,0.00,6.000000,,2013-05-13 05:02:00,
2013-05-12 22:11:00,68.0,37.0,-100.00,NW,317,13.0,27.0,32,0.00,,,0.00,6.000000,,2013-05-13 05:11:00,
2013-05-12 22:21:00,68.0,37.0,-100.00,NW,317,13.0,27.0,32,0.00,,,0.00,6.000000,,2013-05-13 05:21:00,
2013-05-12 22:52:00,65.0,37.0,-100.00,NW,323,15.0,18.0,35,0.00,,,-99.99,0.000000,,2013-05-13 05:52:00,
2013-05-12 23:01:00,65.0,37.0,-100.00,NW,323,15.0,18.0,35,0.00,,,-99.99,0.000000,,2013-05-13 06:01:00,
2013-05-12 23:11:00,65.0,37.0,-100.00,NW,323,15.0,18.0,35,0.00,,,-99.99,0.000000,,2013-05-13 06:11:00,
2013-05-12 23:21:00,65.0,37.0,-100.00,NW,323,15.0,18.0,35,0.00,,,-99.99,0.000000,,2013-05-13 06:21:00,
2013-05-12 23:52:00,66.0,38.0,-100.00,NW,324,15.0,18.0,36,0.00,,,0.00,0.000000,,2013-05-13 06:52:00,